Current weather by "City, St" or "zip code"  
 

Current Conditions: WINSLOW

Clear


59.0 F

Last Updated on May 25 2024, 11:56 PM MST
Humidity: %
Wind Speed: 16.1 mph
Barometer 30.00 in
Dewpoint: F
Visibility: 10.00 mi
Precip: --
Heat Index: NA
Wind Chill: NA
Current conditions at:

WINSLOW (KINW)

Lat: 35.02 Lon: 110.73

active severe weather and emergency alerts image image weather storm and storm spotter reports image weather observation monitoring service image
Active
Alerts
Storm Reports Obs
Monitoring

Sign-up For Email & Text Message Weather Alert Notification Services



Advertise Here

Observation History for WINSLOW


Time Wind
(mph)
Vis
(mi)
Weather Precip (in) Temperature (F) Relative
Humidity
Wind
Chill
(F)
Heat
Index
(F)
Pressure
Air Dwpt altimeter
(in)
sea level
(mb)
Rmks
11:56 PM MST 16.1 10.00 Clear -- 59.0 % NA NA 30.00 1015.9
10:56 PM MST SW 15.0 10.00 Clear -- 60.1 26.1 27% NA NA 30.01 1016.3
09:56 PM MST SW 18.3 10.00 Clear -- 62.1 27.0 26% NA NA 30.00 1015.9
08:56 PM MST SW 16.1 10.00 Clear -- 64.9 27.0 24% NA NA 29.97 1014.9
07:56 PM MST SW 17.2 10.00 Clear -- 68.0 27.0 21% NA NA 29.95 1014.2
06:56 PM MST 21.9 10.00 Clear and Windy -- 73.0 27.0 18% NA 70.9 29.94 1013.6
05:56 PM MST W 23.0 10.00 Clear and Windy -- 75.9 26.1 16% NA 73.9 29.90 1012.5
03:56 PM MST SW 20.8 10.00 Clear and Windy -- 79.0 21.0 11% NA 77.2 29.89 1012.2
02:56 PM MST SW 26.4 10.00 Clear and Breezy -- 79.0 21.9 12% NA 77.2 29.90 1012.5
01:56 PM MST SW 28.9 10.00 Clear and Breezy -- 79.0 21.9 12% NA 77.2 29.90 1012.5
12:56 PM MST 25.3 10.00 Clear and Windy -- 79.0 21.0 11% NA 77.2 29.90 1012.5
11:56 AM MST 30.0 10.00 Clear and Breezy -- 79.0 21.0 11% NA 77.2 29.91 1012.9
10:56 AM MST 16.1 10.00 Clear -- 77.0 23.0 13% NA 75.0 29.91 1012.9
07:56 AM MST 20.8 10.00 Clear and Windy -- 69.1 30.9 24% NA NA 29.90 1012.5
06:56 AM MST 20.8 10.00 Clear and Windy -- 64.9 28.0 25% NA NA 29.87 1011.5
05:56 AM MST 10.00 Clear -- 62.1 26.1 25% NA NA 29.89 1012.2
04:56 AM MST SW 11.4 10.00 Clear -- 62.1 26.1 25% NA NA 29.88 1011.9
03:56 AM MST SE 4.7 10.00 Clear -- 52.0 24.1 33% NA NA 29.88 1011.9
02:56 AM MST 3.4 10.00 Clear -- 55.0 24.1 30% NA NA 29.88 1011.9
01:56 AM MST 4.7 10.00 Clear -- 53.1 24.1 32% NA NA 29.88 1011.9
12:56 AM MST 6.9 10.00 Clear -- 55.9 24.1 29% NA NA 29.88 1011.9
11:56 PM MST 5.8 10.00 NULL -- 54.0 23.0 30% NA NA 29.90 1012.5
10:56 PM MST S 4.7 10.00 Clear -- 57.0 23.0 27% NA NA 29.91 1012.9
09:56 PM MST S 8.1 10.00 Clear -- 63.0 24.1 23% NA NA 29.92 1013.2

Regional Weather Observation


FLAGSTAFF (KFLG)

Clear
41.0 F

SEDONA (KSEZ)

Clear
62.6 F

TAYLOR (KTYL)

Clear
NULL F

PAYSON (KPAN)

Clear
51.8 F

()


F

WILLIAMS CLARK (KCMR)

Clear
48.2 F

Advertise Here


Advertise Here